Temp
27 27 27 28 28 31 31 29 30 30 30 29 28 29 27 27 27 27 25 25 25 26 26 26 26 26 26 26 26 26 26 26 25 25 24 24 25 26 26 25 24 25 25 25
27 26 27 29 30 31 31 31 29 30 30 30 29 28 28 27 27 28 27 26 27 26 25 25 26 26 26 27 27 26 26 26 26 26 25 25 25 26 26 26 25 25 25 25
25 29 28 29 29 31 30 30 30 31 30 30 29 29 28 27 27 27 27 28 28 27 25 23 25 25 25 26 26 26 27 27 26 26 25 25 25 25 25 26 26 26 25 25
28 29 28 28 29 29 31 29 31 30 29 28 28 28 28 28 26 26 28 27 28 27 25 24 25 25 25 27 27 27 26 26 26 26 25 25 26 26 26 25 25 25 25 25
28 28 29 30 29 30 31 31 30 29 27 28 29 27 27 26 27 26 27 28 28 28 26 25 24 26 26 26 27 27 26 27 26 26 26 26 26 26 26 26 26 25 25 25
29 30 29 29 30 30 29 28 25 24 25 26 27 28 28 29 29 28 27 28 28 27 28 26 26 26 26 26 27 26 26 27 26 27 26 26 26 26 26 26 26 25 25 25
29 30 31 31 30 29 27 25 24 26 25 26 25 27 28 30 29 28 28 28 28 27 27 25 25 25 25 26 26 27 26 26 26 26 26 27 26 26 26 26 26 25 25 25
26 28 30 30 31 29 27 26 24 28 25 27 24 27 29 30 27 28 29 29 27 26 27 26 25 26 25 26 26 26 26 26 27 26 27 27 26 26 26 26 26 26 26 25
26 29 29 30 30 30 28 28 26 22 22 25 25 27 29 28 26 27 27 28 27 27 27 27 26 27 26 26 26 27 27 27 26 27 27 27 27 26 26 26 26 26 26 25
27 29 30 31 31 29 30 26 28 23 27 28 26 27 27 29 27 25 25 25 26 26 27 27 27 27 26 26 27 27 27 28 27 26 26 26 27 27 26 26 26 26 26 25
24 27 29 29 29 28 28 27 22 23 22 25 26 26 24 25 25 26 26 26 24 25 26 27 26 27 27 27 26 27 27 25 23 26 25 26 26 27 26 26 26 26 26 25
26 23 27 28 29 27 27 27 24 25 27 21 23 26 26 23 24 25 26 26 25 24 25 26 26 27 27 27 27 27 26 23 24 30 25 26 25 26 26 26 26 26 26 25
26 24 25 28 27 28 30 26 23 21 21 23 26 27 24 22 24 24 27 26 24 24 25 25 24 25 25 26 27 27 27 24 26 29 25 25 25 26 26 26 26 26 26 25
25 22 26 26 29 28 31 29 25 25 25 24 24 28 27 26 26 26 26 25 24 24 24 23 24 24 26 26 27 27 27 25 24 25 26 25 25 26 25 26 26 26 26 26
27 28 25 27 30 29 29 29 26 29 27 29 28 26 28 25 26 26 26 25 25 26 25 24 24 23 25 25 26 26 27 27 26 26 25 26 25 24 24 25 25 26 26 25
23 27 27 28 29 30 28 27 27 28 26 26 24 26 24 21 24 26 26 25 25 26 26 25 24 24 24 25 25 25 26 26 26 26 25 26 25 25 24 25 25 25 25 25
25 23 25 28 28 28 29 29 27 27 27 25 27 26 23 24 24 25 25 26 26 26 26 25 24 24 25 27 27 27 26 25 24 24 24 24 24 24 24 24 24 24 25 25
23 22 22 25 27 29 27 27 26 26 26 25 25 22 23 23 23 24 25 26 27 26 25 24 24 25 26 27 28 28 27 27 26 25 25 25 25 24 24 24 24 24 24 24
22 21 22 25 24 26 30 28 28 27 29 27 25 23 23 24 25 26 25 25 26 26 24 25 27 28 28 29 29 28 28 27 27 26 26 26 26 26 25 25 24 24 23 23
21 21 24 22 28 28 27 29 29 28 27 27 25 24 23 24 27 25 25 25 25 26 26 26 27 28 28 28 28 28 27 27 27 27 27 27 27 26 25 25 25 25 24 23
22 20 23 21 25 25 26 28 28 30 29 26 24 23 23 23 24 24 25 25 26 26 26 27 27 28 28 27 26 26 27 26 27 27 27 27 27 26 26 25 25 24 24 23
25 23 23 21 25 29 27 28 30 27 25 25 24 23 23 25 25 25 25 25 25 25 25 27 27 28 28 27 26 26 27 27 27 26 26 26 26 26 25 24 25 25 23 23
25 22 23 23 24 23 23 26 25 24 24 25 24 24 25 24 24 25 25 25 24 26 26 27 29 28 27 27 27 26 27 27 27 26 26 26 26 25 25 23 24 24 23 21
23 20 22 23 25 25 25 25 25 25 24 24 25 24 24 25 24 25 24 24 23 25 24 26 26 25 25 26 25 26 26 26 26 26 26 26 25 25 24 23 23 22 22 21
21 22 21 22 25 25 24 24 24 24 24 25 25 26 25 25 25 25 24 23 23 24 25 25 24 23 23 24 25 26 26 26 26 25 25 25 24 24 24 23 23 22 22 22
21 22 23 23 23 23 24 25 25 24 25 25 25 24 22 23 23 23 22 22 22 23 24 23 23 24 24 25 25 25 25 25 24 24 25 25 23 23 23 22 22 22 22 21
Height
767 785 797 785 780 778 784 797 799 787 776 784 790 787 786 783 785 789 789 790 793 793 792 795 798 803 806 811 815 818 821 824 828 831 834 836 838 839 840 842 843 844 845 846
781 795 777 768 773 778 782 792 799 785 777 785 788 791 779 779 776 777 781 784 784 786 789 791 795 799 801 804 809 814 817 821 825 827 830 833 836 838 839 840 841 842 843 844
792 775 769 773 781 786 788 794 792 794 785 782 791 795 783 776 774 776 775 774 776 779 785 788 790 793 797 801 805 808 811 817 822 825 829 833 835 836 837 838 839 840 842 843
775 765 775 780 785 784 797 777 779 789 801 821 796 828 791 781 781 775 771 773 773 774 778 783 788 790 792 795 801 806 809 814 819 824 826 828 830 832 835 837 838 839 841 843
779 774 774 781 779 774 786 771 783 792 809 808 804 825 797 784 785 775 767 763 764 766 772 776 783 783 786 793 796 802 806 811 816 820 823 826 828 830 833 835 836 839 841 842
767 754 761 765 763 766 771 785 802 812 818 840 814 818 803 786 772 765 760 758 759 761 764 770 773 780 785 788 793 799 803 807 813 817 820 823 826 828 830 832 835 837 839 840
770 765 753 750 770 771 783 809 845 844 849 845 820 822 799 764 757 757 756 755 754 756 761 766 770 774 779 784 787 794 800 803 808 813 816 819 822 825 828 830 833 835 836 837
798 799 763 751 760 778 789 797 836 842 859 836 825 825 792 757 756 750 749 748 751 755 756 758 762 767 771 777 782 786 792 797 803 807 810 815 819 822 825 828 831 833 834 836
796 785 752 750 750 758 788 800 792 835 843 838 826 800 769 760 758 752 753 751 751 749 751 751 758 760 765 771 774 779 783 790 797 804 806 810 814 818 821 825 829 830 832 834
769 786 757 749 745 757 765 775 808 826 843 839 829 817 808 772 766 761 757 756 752 745 746 749 752 756 761 764 768 774 778 781 791 801 807 808 808 813 817 822 825 827 829 831
768 776 776 763 769 778 782 790 807 812 828 839 843 823 781 774 767 765 757 749 749 748 746 745 750 752 759 765 768 769 773 781 793 802 808 807 807 809 813 816 820 823 826 828
758 784 791 775 753 755 764 777 789 818 817 833 831 812 761 768 766 761 756 751 746 744 745 744 747 751 756 761 765 767 772 780 793 791 799 800 803 806 808 812 815 819 822 824
754 783 803 784 772 760 764 771 783 797 808 824 823 805 762 767 763 762 756 750 749 747 746 746 749 754 757 760 763 765 770 777 783 784 786 792 798 798 801 805 809 812 816 818
736 779 779 797 775 764 763 765 773 779 808 814 807 782 765 763 760 759 753 751 753 750 751 749 753 755 756 758 760 762 766 775 780 784 787 789 790 791 796 799 803 805 807 810
736 764 770 763 752 754 759 760 770 768 775 781 774 778 755 759 758 755 753 757 758 756 751 751 751 754 756 760 763 765 767 770 774 778 782 782 786 791 793 795 797 798 800 802
743 764 759 766 755 752 767 764 762 762 769 769 776 771 754 765 758 758 759 764 766 756 752 753 755 758 761 764 767 770 771 771 772 774 777 780 783 785 787 789 790 792 793 795
746 764 774 777 762 767 776 758 759 759 755 764 774 758 756 764 765 764 764 763 764 754 754 756 758 763 764 765 768 771 775 777 778 778 779 780 782 782 782 783 784 785 786 788
751 762 775 785 773 793 764 746 749 757 756 754 752 757 756 759 762 761 758 759 757 755 757 756 758 764 768 768 770 772 774 775 776 777 778 778 779 778 777 778 778 779 781 781
734 756 783 787 799 777 751 750 752 757 755 744 750 754 753 752 753 757 753 753 754 754 757 756 759 763 768 768 770 773 775 777 777 776 777 777 777 777 776 776 775 775 776 776
741 746 760 788 784 794 762 738 731 737 771 737 743 750 754 753 771 765 750 751 755 756 758 759 763 765 766 767 768 771 773 774 775 776 776 775 775 775 774 774 774 773 772 772
763 769 775 788 785 773 746 734 730 767 767 735 740 745 748 758 756 751 746 749 751 755 758 761 762 761 763 766 768 769 771 773 775 776 775 775 774 774 774 773 772 771 770 770
754 769 777 785 782 775 734 736 749 740 733 730 736 741 745 747 748 749 746 748 752 753 755 757 757 760 763 765 767 768 768 771 773 774 773 772 772 772 772 771 769 768 768 767
757 754 761 764 763 743 738 735 730 732 733 734 737 737 737 745 749 750 749 750 752 752 754 754 754 758 762 762 765 767 768 769 772 773 771 770 769 769 769 768 767 766 764 763
743 745 754 755 741 739 734 730 728 728 732 731 731 736 739 742 745 748 750 750 752 752 755 756 755 759 761 763 766 768 769 770 770 771 769 768 767 766 765 765 764 763 762 761
741 739 752 755 742 737 737 735 734 733 732 733 735 736 738 740 742 744 749 748 749 751 755 758 760 765 765 766 768 768 768 769 769 768 767 766 765 762 761 760 759 758 757 756
734 738 747 755 740 743 742 737 734 734 739 740 740 741 741 740 744 745 748 748 750 753 754 758 762 763 764 765 766 767 768 768 767 765 763 761 760 758 756 755 753 754 752 752
Wind_Speed
2 5 7 11 8 3 2 4 4 4 5 5 6 3 8 12 11 11 10 9 9 14 18 27 29 29 31 32 32 33 32 31 27 25 22 17 15 10 8 9 8 10 5 9
5 5 8 5 3 2 3 1 4 3 2 1 1 8 8 11 18 18 17 14 14 8 8 16 23 26 32 37 35 36 36 35 30 31 28 22 19 13 10 8 7 8 7 4
7 4 8 6 4 4 2 4 3 2 2 2 4 6 4 4 5 9 12 14 14 15 11 9 18 27 29 32 36 37 38 37 33 33 28 20 17 11 11 11 10 10 11 8
4 2 9 5 5 6 3 7 5 4 3 2 3 5 3 1 6 8 14 12 14 13 8 7 15 21 29 37 38 38 38 37 34 31 28 27 23 17 10 5 7 10 7 7
8 6 5 4 6 7 7 5 1 3 3 3 2 2 7 2 6 11 14 17 15 14 12 13 18 26 35 30 38 38 36 37 34 30 28 26 23 18 14 8 6 9 9 8
6 2 6 9 4 9 5 6 8 4 3 2 3 5 8 3 3 5 7 13 13 12 12 12 21 23 24 32 35 32 34 35 34 32 29 26 23 19 15 13 11 12 12 11
3 3 3 3 5 3 6 6 3 4 3 5 3 3 9 8 5 6 9 11 12 11 12 11 13 19 23 31 35 34 32 34 34 33 32 29 26 21 20 17 14 14 14 16
5 4 6 4 6 7 5 8 6 5 5 4 2 6 7 4 8 4 1 6 9 10 11 13 16 23 27 30 35 36 36 34 35 35 34 32 29 25 22 19 16 16 14 14
5 5 3 4 4 8 5 3 5 7 4 3 3 8 9 5 6 8 7 7 9 10 12 14 15 24 26 28 35 40 38 34 37 37 34 34 32 29 26 23 19 16 15 14
6 1 1 4 5 6 4 6 3 3 5 4 4 6 6 5 6 8 8 6 6 7 9 11 11 21 24 30 33 37 40 39 37 34 33 33 33 32 29 24 23 21 17 17
6 3 5 1 5 8 2 2 6 5 4 6 3 7 6 8 4 6 5 2 4 5 7 11 9 18 20 22 26 34 37 32 21 24 34 30 32 32 30 27 25 25 22 19
6 5 4 10 1 3 4 7 6 5 5 2 3 6 4 7 6 6 5 6 5 5 3 7 8 16 20 22 25 31 31 25 27 17 32 35 32 32 30 31 31 28 26 24
8 1 2 9 6 3 3 5 5 6 4 6 6 6 3 5 4 7 3 4 6 4 0 4 7 8 14 20 25 27 29 28 35 32 29 33 31 29 31 32 31 30 31 28
10 3 7 7 6 4 2 4 4 6 4 5 6 5 6 6 7 7 4 5 4 3 5 6 6 6 12 18 23 25 24 22 27 33 37 33 31 32 33 33 32 29 28 29
6 7 5 2 1 5 2 3 7 7 6 6 6 11 14 6 4 0 4 4 3 3 7 7 6 5 9 10 12 15 16 18 19 24 26 29 28 26 29 30 30 30 28 28
4 4 3 2 3 2 4 3 3 1 4 2 5 5 4 5 5 4 2 3 6 6 7 7 7 9 12 12 9 6 7 12 16 17 22 25 27 28 27 27 28 28 27 26
6 7 4 3 2 4 4 1 2 3 2 6 6 6 4 5 5 5 4 5 7 5 7 7 9 10 15 16 15 14 11 7 8 13 15 18 20 21 23 24 24 26 26 26
7 6 3 3 3 1 6 3 4 3 1 5 3 5 7 7 7 6 6 6 4 4 4 6 9 11 13 16 15 13 11 11 10 7 4 1 5 11 14 18 21 22 24 26
3 6 4 5 2 5 2 4 3 5 3 4 6 7 6 4 4 2 5 5 5 5 5 10 16 17 12 15 14 11 9 8 8 8 6 5 5 6 8 11 14 17 20 23
5 7 5 2 5 6 6 1 3 3 4 4 5 9 8 4 3 4 6 5 6 5 11 15 17 18 17 15 15 13 10 7 4 2 4 5 7 10 11 12 13 14 16 18
4 4 5 3 3 5 5 4 1 5 6 5 7 7 10 6 4 2 1 5 7 9 16 23 24 20 15 14 13 10 9 7 5 1 2 6 10 13 14 15 15 15 15 16
4 5 3 3 4 2 2 1 6 5 2 5 5 4 6 3 3 4 2 4 6 8 15 22 21 16 16 15 12 10 9 5 3 5 6 8 11 14 16 15 14 14 15 16
2 5 5 6 5 3 3 3 3 2 2 3 5 3 8 7 7 3 1 5 7 13 16 19 20 18 16 14 11 10 7 5 4 7 9 11 10 14 15 16 16 17 16 15
2 3 4 3 3 3 3 3 4 5 4 5 6 6 6 5 6 6 1 4 5 8 11 13 14 14 12 9 9 5 4 2 5 9 13 15 16 17 15 16 17 16 17 15
4 4 6 2 3 2 7 5 4 7 8 8 7 3 5 6 3 4 5 6 8 5 2 4 5 5 1 3 3 1 2 6 9 12 14 16 17 18 19 18 19 19 20 18
2 6 4 4 5 4 1 3 3 10 8 6 6 7 8 8 6 5 3 1 6 7 7 7 7 3 0 1 1 3 6 9 12 16 18 23 24 24 23 22 23 21 23 21
Wind_Direction
31 105 168 192 190 160 145 170 224 250 168 149 231 182 188 184 182 191 200 200 205 197 213 208 207 206 211 217 217 216 217 217 216 208 209 206 212 216 227 224 223 219 228 240
42 192 224 168 134 187 279 290 284 287 90 140 91 260 218 186 203 196 195 202 213 220 166 195 197 195 204 212 219 217 219 216 214 208 206 210 210 213 219 221 229 232 215 247
152 230 156 135 159 162 244 226 246 184 67 204 316 277 218 213 184 205 214 207 208 208 200 182 182 187 196 201 211 213 211 211 209 208 211 213 209 204 215 230 242 229 230 232
215 213 146 142 179 139 256 188 251 101 79 223 66 284 287 174 208 205 212 206 209 207 185 173 187 185 193 205 211 212 210 208 206 209 212 210 209 210 218 236 232 208 206 214
240 166 152 161 188 173 223 155 248 102 97 28 348 26 270 210 226 226 210 211 210 205 191 181 187 194 201 200 208 212 213 211 210 211 214 214 219 222 222 221 215 197 204 219
216 236 161 198 163 178 131 78 45 57 87 350 193 133 286 253 221 270 198 210 208 194 194 190 194 191 197 202 208 214 217 216 217 215 215 217 220 217 209 215 214 220 224 228
335 239 261 149 106 66 84 70 5 31 18 226 313 111 239 295 268 230 212 197 197 188 194 176 176 186 188 197 205 211 218 216 220 221 221 221 225 225 218 217 222 228 231 226
155 310 187 176 166 173 174 151 151 198 184 236 144 238 257 278 324 292 111 195 183 187 193 186 187 191 190 198 202 208 213 216 221 221 224 226 228 229 227 229 233 234 238 229
136 267 277 187 134 137 186 147 172 101 8 56 232 291 314 337 359 22 57 176 197 199 191 190 188 192 193 192 204 209 215 217 220 224 224 227 229 231 231 234 235 237 237 225
202 132 250 314 67 41 142 158 83 18 131 213 283 288 238 322 311 341 9 355 290 230 186 187 192 193 197 197 204 213 219 220 219 225 231 230 228 232 236 238 240 238 234 227
139 107 294 30 188 167 110 170 55 113 120 162 205 261 212 238 267 276 298 312 334 285 220 174 197 187 194 199 201 213 222 215 201 235 238 240 239 235 237 238 240 241 237 234
190 136 205 225 130 140 150 171 141 129 226 101 151 275 207 245 245 246 252 342 349 350 328 173 171 165 178 193 202 215 214 194 172 224 242 240 244 240 240 241 242 242 241 240
179 201 26 343 6 25 196 194 121 112 87 185 137 262 210 248 257 254 236 25 10 346 91 124 123 172 172 189 206 219 222 196 196 202 225 232 239 244 244 245 245 244 241 241
104 127 158 186 199 170 163 182 162 124 127 173 218 248 264 226 207 208 87 47 316 339 172 139 129 169 193 195 206 221 231 219 207 217 230 236 245 249 251 247 245 243 242 240
128 193 166 219 246 110 116 207 186 164 176 163 222 195 220 191 207 98 93 17 326 123 73 76 81 113 143 166 197 225 241 247 240 233 240 247 253 248 252 254 249 245 244 242
355 185 152 16 201 217 124 63 202 51 141 3 131 247 152 92 83 77 102 211 235 141 118 123 95 69 75 96 126 173 242 253 250 250 251 255 254 256 255 253 251 248 248 246
129 131 110 190 102 316 335 16 232 207 204 141 185 217 123 114 112 106 131 172 214 142 123 111 102 106 105 97 97 95 98 119 204 228 242 252 255 255 255 255 252 250 247 248
130 107 77 139 71 188 240 261 217 164 167 210 119 138 128 139 144 170 189 177 173 127 136 105 102 110 116 109 96 87 78 73 70 67 61 3 285 273 268 261 256 256 255 252
70 117 82 121 126 277 283 182 179 162 251 165 136 159 114 112 105 47 173 173 184 166 186 139 142 136 138 131 130 127 112 83 68 49 25 3 340 317 306 284 276 271 264 261
59 72 107 120 126 197 238 236 199 172 350 160 167 160 143 99 116 249 193 177 173 179 166 156 160 162 157 158 163 156 142 137 121 69 11 346 321 303 293 290 289 289 282 276
48 19 119 111 143 288 245 267 269 83 224 169 163 160 153 144 179 242 169 197 173 174 169 173 174 165 168 169 170 155 140 156 161 197 316 326 324 316 306 293 288 289 287 279
140 129 154 108 93 183 149 115 158 226 7 128 129 171 132 108 107 345 262 201 181 166 169 172 165 176 187 183 177 165 154 161 219 275 314 328 318 303 297 297 296 295 284 274
124 177 162 169 205 246 273 235 340 100 95 82 125 178 161 175 195 150 114 172 192 183 192 182 180 195 207 189 193 188 169 186 232 291 318 326 323 314 295 281 288 298 300 284
236 167 93 82 323 345 6 72 50 33 98 123 118 136 160 168 183 165 146 170 208 205 219 208 197 216 210 193 190 190 155 207 304 304 309 316 314 311 300 277 278 282 288 287
200 136 139 55 328 90 24 44 77 80 78 76 57 111 177 169 175 163 192 207 212 209 231 265 239 249 111 178 205 246 312 327 318 308 312 311 308 307 294 282 274 277 282 277
204 163 136 200 204 132 185 20 23 85 84 75 103 76 51 72 88 98 52 26 163 171 183 174 174 143 168 269 269 346 342 325 313 311 311 311 313 310 299 284 282 276 279 284